Time,TemperatureF,DewpointF,PressureIn,WindDirection,WindDirectionDegrees,WindSpeedMPH,WindSpeedGustMPH,Humidity,HourlyPrecipIn,Conditions,Clouds,dailyrainin,SoftwareType,DateUTC
2013-01-26 00:01:00,19.3,14.7,30.56,NE,40,7.0,7.0,82,0.00,,---,0.00,VWS V14.01,2013-01-26 06:01:00,
2013-01-26 00:06:00,19.1,14.5,30.53,NE,42,6.0,6.0,82,0.00,,---,0.00,VWS V14.01,2013-01-26 06:06:00,
2013-01-26 00:11:00,19.0,14.4,30.53,NE,34,4.0,6.0,82,0.00,,---,0.00,VWS V14.01,2013-01-26 06:11:00,
2013-01-26 00:16:00,18.9,14.0,30.53,ENE,59,4.0,6.0,81,0.00,,---,0.00,VWS V14.01,2013-01-26 06:16:00,
2013-01-26 00:21:00,18.7,13.9,30.53,NE,49,4.0,6.0,81,0.00,,---,0.00,VWS V14.01,2013-01-26 06:21:00,
2013-01-26 00:26:00,18.6,14.0,30.53,ENE,66,6.0,7.0,82,0.00,,---,0.00,VWS V14.01,2013-01-26 06:26:00,
2013-01-26 00:30:00,18.4,13.6,30.53,NE,44,3.0,5.0,81,0.00,,---,0.00,VWS V14.01,2013-01-26 06:30:00,
2013-01-26 00:35:00,18.2,13.6,30.53,ENE,68,5.0,6.0,82,0.00,,---,0.00,VWS V14.01,2013-01-26 06:35:00,
2013-01-26 00:40:00,18.2,13.6,30.53,NE,34,3.0,4.0,82,0.00,,---,0.00,VWS V14.01,2013-01-26 06:40:00,
2013-01-26 00:45:00,18.1,13.5,30.53,NE,51,6.0,6.0,82,0.00,,---,0.00,VWS V14.01,2013-01-26 06:45:00,
2013-01-26 00:50:00,17.9,13.4,30.53,NE,43,4.0,5.0,82,0.00,,---,0.00,VWS V14.01,2013-01-26 06:50:00,
2013-01-26 00:55:00,17.7,13.1,30.54,NE,44,6.0,6.0,82,0.00,,---,0.00,VWS V14.01,2013-01-26 06:55:00,
2013-01-26 01:00:00,17.7,13.1,30.54,ENE,62,3.0,6.0,82,0.00,,---,0.00,VWS V14.01,2013-01-26 07:00:00,
2013-01-26 01:05:00,17.6,13.1,30.53,ENE,66,5.0,7.0,82,0.00,,---,0.00,VWS V14.01,2013-01-26 07:05:00,
2013-01-26 01:10:00,17.4,12.9,30.53,ENE,74,7.0,9.0,82,0.00,,---,0.00,VWS V14.01,2013-01-26 07:10:00,
2013-01-26 01:15:00,17.1,12.6,30.54,ENE,64,6.0,7.0,82,0.00,,---,0.00,VWS V14.01,2013-01-26 07:15:00,
2013-01-26 01:20:00,16.9,12.4,30.53,ENE,58,7.0,7.0,82,0.00,,---,0.00,VWS V14.01,2013-01-26 07:20:00,
2013-01-26 01:25:00,16.7,12.2,30.53,ENE,72,6.0,6.0,82,0.00,,---,0.00,VWS V14.01,2013-01-26 07:25:00,
2013-01-26 01:30:00,16.6,12.1,30.53,ENE,58,5.0,9.0,82,0.00,,---,0.00,VWS V14.01,2013-01-26 07:30:00,
2013-01-26 01:35:00,16.4,11.9,30.53,ENE,70,6.0,10.0,82,0.00,,---,0.00,VWS V14.01,2013-01-26 07:35:00,
2013-01-26 01:40:00,16.3,11.8,30.53,NNE,30,2.0,6.0,82,0.00,,---,0.00,VWS V14.01,2013-01-26 07:40:00,
2013-01-26 01:45:00,16.2,11.7,30.53,ENE,76,4.0,5.0,82,0.00,,---,0.00,VWS V14.01,2013-01-26 07:45:00,
2013-01-26 01:50:00,15.9,11.4,30.53,East,80,2.0,4.0,82,0.00,,---,0.00,VWS V14.01,2013-01-26 07:50:00,
2013-01-26 01:55:00,15.7,11.2,30.53,ENE,57,4.0,4.0,82,0.00,,---,0.00,VWS V14.01,2013-01-26 07:55:00,
2013-01-26 02:00:00,15.5,11.0,30.54,East,79,5.0,5.0,82,0.00,,---,0.00,VWS V14.01,2013-01-26 08:00:00,
2013-01-26 02:05:00,15.4,10.9,30.55,ENE,73,4.0,5.0,82,0.00,,---,0.00,VWS V14.01,2013-01-26 08:05:00,
2013-01-26 02:10:00,15.3,10.8,30.55,ENE,67,3.0,5.0,82,0.00,,---,0.00,VWS V14.01,2013-01-26 08:10:00,
2013-01-26 02:15:00,15.2,10.7,30.55,ENE,71,3.0,3.0,82,0.00,,---,0.00,VWS V14.01,2013-01-26 08:15:00,
2013-01-26 02:20:00,15.2,10.7,30.55,ENE,71,4.0,4.0,82,0.00,,---,0.00,VWS V14.01,2013-01-26 08:20:00,
2013-01-26 02:25:00,15.1,10.6,30.54,ENE,65,4.0,4.0,82,0.00,,---,0.00,VWS V14.01,2013-01-26 08:25:00,
2013-01-26 02:30:00,14.8,10.3,30.55,ENE,66,3.0,4.0,82,0.00,,---,0.00,VWS V14.01,2013-01-26 08:30:00,
2013-01-26 02:35:00,14.7,10.5,30.55,ENE,66,2.0,3.0,83,0.00,,---,0.00,VWS V14.01,2013-01-26 08:35:00,
2013-01-26 02:40:00,14.7,10.5,30.55,East,81,3.0,4.0,83,0.00,,---,0.00,VWS V14.01,2013-01-26 08:40:00,
2013-01-26 02:45:00,14.6,10.1,30.55,ENE,69,4.0,5.0,82,0.00,,---,0.00,VWS V14.01,2013-01-26 08:45:00,
2013-01-26 02:50:00,14.7,10.2,30.55,ENE,77,1.0,3.0,82,0.00,,---,0.00,VWS V14.01,2013-01-26 08:50:00,
2013-01-26 02:55:00,14.7,10.2,30.55,ENE,77,2.0,2.0,82,0.00,,---,0.00,VWS V14.01,2013-01-26 08:55:00,
2013-01-26 03:00:00,14.6,10.4,30.55,ENE,77,2.0,3.0,83,0.00,,---,0.00,VWS V14.01,2013-01-26 09:00:00,
2013-01-26 03:05:00,14.5,10.0,30.55,East,88,1.0,3.0,82,0.00,,---,0.00,VWS V14.01,2013-01-26 09:05:00,
2013-01-26 03:10:00,14.4,9.9,30.55,East,84,3.0,4.0,82,0.00,,---,0.00,VWS V14.01,2013-01-26 09:10:00,
2013-01-26 03:15:00,14.3,9.8,30.55,East,96,2.0,3.0,82,0.00,,---,0.00,VWS V14.01,2013-01-26 09:15:00,
2013-01-26 03:20:00,14.2,9.7,30.55,East,96,2.0,2.0,82,0.00,,---,0.00,VWS V14.01,2013-01-26 09:20:00,
2013-01-26 03:25:00,14.0,9.5,30.55,ESE,106,2.0,3.0,82,0.00,,---,0.00,VWS V14.01,2013-01-26 09:25:00,
2013-01-26 03:30:00,13.8,9.3,30.55,ESE,105,3.0,3.0,82,0.00,,---,0.00,VWS V14.01,2013-01-26 09:30:00,
2013-01-26 03:35:00,13.6,9.1,30.55,ESE,105,2.0,3.0,82,0.00,,---,0.00,VWS V14.01,2013-01-26 09:35:00,
2013-01-26 03:40:00,13.5,9.3,30.54,ESE,111,3.0,3.0,83,0.00,,---,0.00,VWS V14.01,2013-01-26 09:40:00,
2013-01-26 03:45:00,13.5,9.3,30.54,ESE,117,4.0,5.0,83,0.00,,---,0.00,VWS V14.01,2013-01-26 09:45:00,
2013-01-26 03:50:00,13.8,9.6,30.54,ESE,123,5.0,6.0,83,0.00,,---,0.00,VWS V14.01,2013-01-26 09:50:00,
2013-01-26 03:55:00,14.0,9.8,30.54,SE,128,6.0,6.0,83,0.00,,---,0.00,VWS V14.01,2013-01-26 09:55:00,
2013-01-26 04:00:00,14.0,9.8,30.54,ESE,110,4.0,5.0,83,0.00,,---,0.00,VWS V14.01,2013-01-26 10:00:00,
2013-01-26 04:05:00,14.0,9.8,30.56,ESE,117,5.0,5.0,83,0.00,,---,0.00,VWS V14.01,2013-01-26 10:05:00,
2013-01-26 04:10:00,14.1,9.9,30.56,ESE,103,4.0,4.0,83,0.00,,---,0.00,VWS V14.01,2013-01-26 10:10:00,
2013-01-26 04:15:00,14.1,9.9,30.56,East,88,3.0,5.0,83,0.00,,---,0.00,VWS V14.01,2013-01-26 10:15:00,
2013-01-26 04:20:00,13.9,9.4,30.56,ESE,102,4.0,6.0,82,0.00,,---,0.00,VWS V14.01,2013-01-26 10:20:00,
2013-01-26 04:25:00,13.8,9.3,30.55,East,96,5.0,5.0,82,0.00,,---,0.00,VWS V14.01,2013-01-26 10:25:00,
2013-01-26 04:30:00,13.7,9.5,30.55,ESE,108,4.0,6.0,83,0.00,,---,0.00,VWS V14.01,2013-01-26 10:30:00,
2013-01-26 04:35:00,13.7,9.5,30.55,ESE,108,5.0,7.0,83,0.00,,---,0.00,VWS V14.01,2013-01-26 10:35:00,
2013-01-26 04:40:00,13.8,9.6,30.55,ESE,103,6.0,7.0,83,0.00,,---,0.00,VWS V14.01,2013-01-26 10:40:00,
2013-01-26 04:45:00,13.8,9.6,30.55,ESE,104,5.0,6.0,83,0.00,,---,0.00,VWS V14.01,2013-01-26 10:45:00,
2013-01-26 04:50:00,13.7,9.5,30.55,East,96,3.0,6.0,83,0.00,,---,0.00,VWS V14.01,2013-01-26 10:50:00,
2013-01-26 04:55:00,13.6,9.4,30.55,East,99,4.0,7.0,83,0.00,,---,0.00,VWS V14.01,2013-01-26 10:55:00,
2013-01-26 05:00:00,13.6,9.1,30.55,ESE,108,4.0,5.0,82,0.00,,---,0.00,VWS V14.01,2013-01-26 11:00:00,
2013-01-26 05:05:00,13.6,9.1,30.56,ESE,115,4.0,6.0,82,0.00,,---,0.00,VWS V14.01,2013-01-26 11:05:00,
2013-01-26 05:10:00,13.5,9.0,30.58,ESE,109,3.0,5.0,82,0.00,,---,0.00,VWS V14.01,2013-01-26 11:10:00,
2013-01-26 05:15:00,13.4,8.9,30.59,ESE,109,4.0,5.0,82,0.00,,---,0.00,VWS V14.01,2013-01-26 11:15:00,
2013-01-26 05:20:00,13.4,8.9,30.59,ESE,110,6.0,6.0,82,0.00,,---,0.00,VWS V14.01,2013-01-26 11:20:00,
2013-01-26 05:25:00,13.2,8.8,30.59,ESE,119,6.0,8.0,82,0.00,,---,0.00,VWS V14.01,2013-01-26 11:25:00,
2013-01-26 05:30:00,13.2,8.8,30.59,ESE,103,5.0,8.0,82,0.00,,---,0.00,VWS V14.01,2013-01-26 11:30:00,
2013-01-26 05:35:00,13.2,8.8,30.59,East,85,5.0,8.0,82,0.00,,---,0.00,VWS V14.01,2013-01-26 11:35:00,
2013-01-26 05:40:00,13.2,8.5,30.59,ESE,113,5.0,6.0,81,0.00,,---,0.00,VWS V14.01,2013-01-26 11:40:00,
2013-01-26 05:45:00,13.1,8.4,30.59,ESE,122,5.0,5.0,81,0.00,,---,0.00,VWS V14.01,2013-01-26 11:45:00,
2013-01-26 05:50:00,13.1,8.4,30.59,ESE,111,5.0,5.0,81,0.00,,---,0.00,VWS V14.01,2013-01-26 11:50:00,
2013-01-26 05:55:00,13.0,8.3,30.59,ESE,109,7.0,7.0,81,0.00,,---,0.00,VWS V14.01,2013-01-26 11:55:00,
2013-01-26 06:00:00,12.9,8.2,30.59,ESE,107,6.0,6.0,81,0.00,,---,0.00,VWS V14.01,2013-01-26 12:00:00,
2013-01-26 06:05:00,13.0,8.3,30.59,ESE,113,6.0,7.0,81,0.00,,---,0.00,VWS V14.01,2013-01-26 12:05:00,
2013-01-26 06:10:00,13.0,8.3,30.61,East,101,6.0,6.0,81,0.00,,---,0.00,VWS V14.01,2013-01-26 12:10:00,
2013-01-26 06:15:00,12.9,8.2,30.61,ESE,107,5.0,7.0,81,0.00,,---,0.00,VWS V14.01,2013-01-26 12:15:00,
2013-01-26 06:20:00,12.8,8.1,30.61,East,91,9.0,10.0,81,0.00,,---,0.00,VWS V14.01,2013-01-26 12:20:00,
2013-01-26 06:25:00,12.8,8.1,30.62,ESE,108,8.0,9.0,81,0.00,,---,0.00,VWS V14.01,2013-01-26 12:25:00,
2013-01-26 06:30:00,12.7,8.0,30.62,ESE,102,7.0,9.0,81,0.00,,---,0.00,VWS V14.01,2013-01-26 12:30:00,
2013-01-26 06:35:00,12.6,7.9,30.62,East,90,5.0,10.0,81,0.00,,---,0.00,VWS V14.01,2013-01-26 12:35:00,
2013-01-26 06:40:00,12.6,7.9,30.62,ESE,105,9.0,9.0,81,0.00,,---,0.00,VWS V14.01,2013-01-26 12:40:00,
2013-01-26 06:45:00,12.5,7.8,30.61,ESE,117,4.0,10.0,81,0.00,,---,0.00,VWS V14.01,2013-01-26 12:45:00,
2013-01-26 06:50:00,12.4,7.7,30.62,ESE,102,10.0,11.0,81,0.00,,---,0.00,VWS V14.01,2013-01-26 12:50:00,
2013-01-26 06:55:00,12.4,7.7,30.62,East,85,8.0,8.0,81,0.00,,---,0.00,VWS V14.01,2013-01-26 12:55:00,
2013-01-26 07:00:00,12.3,7.6,30.62,East,86,10.0,10.0,81,0.00,,---,0.00,VWS V14.01,2013-01-26 13:00:00,
2013-01-26 07:05:00,12.4,7.7,30.63,East,95,6.0,9.0,81,0.00,,---,0.00,VWS V14.01,2013-01-26 13:05:00,
2013-01-26 07:10:00,12.3,7.6,30.63,ESE,104,7.0,10.0,81,0.00,,---,0.00,VWS V14.01,2013-01-26 13:10:00,
2013-01-26 07:15:00,12.2,7.5,30.63,ESE,102,6.0,12.0,81,0.00,,---,0.00,VWS V14.01,2013-01-26 13:15:00,
2013-01-26 07:20:00,12.2,7.2,30.62,ESE,123,6.0,9.0,80,0.00,,---,0.00,VWS V14.01,2013-01-26 13:20:00,
2013-01-26 07:25:00,12.1,7.1,30.63,ESE,115,10.0,10.0,80,0.00,,---,0.00,VWS V14.01,2013-01-26 13:25:00,
2013-01-26 07:30:00,12.2,7.2,30.63,East,91,3.0,7.0,80,0.00,,---,0.00,VWS V14.01,2013-01-26 13:30:00,
2013-01-26 07:35:00,12.1,7.1,30.63,ESE,112,13.0,13.0,80,0.00,,---,0.00,VWS V14.01,2013-01-26 13:35:00,
2013-01-26 07:40:00,12.0,7.0,30.63,ESE,107,10.0,13.0,80,0.00,,---,0.00,VWS V14.01,2013-01-26 13:40:00,
2013-01-26 07:45:00,12.1,7.1,30.63,ESE,121,9.0,9.0,80,0.00,,---,0.00,VWS V14.01,2013-01-26 13:45:00,
2013-01-26 07:50:00,12.1,7.1,30.63,ESE,119,9.0,10.0,80,0.00,,---,0.00,VWS V14.01,2013-01-26 13:50:00,
2013-01-26 07:55:00,12.2,7.2,30.63,SE,129,6.0,9.0,80,0.00,,---,0.00,VWS V14.01,2013-01-26 13:55:00,
2013-01-26 08:00:00,12.3,7.3,30.63,ESE,119,11.0,12.0,80,0.00,,---,0.00,VWS V14.01,2013-01-26 14:00:00,
2013-01-26 08:05:00,12.5,7.5,30.63,ESE,116,11.0,11.0,80,0.00,,---,0.00,VWS V14.01,2013-01-26 14:05:00,
2013-01-26 08:10:00,12.8,7.5,30.63,ESE,110,6.0,9.0,79,0.00,,---,0.00,VWS V14.01,2013-01-26 14:10:00,
2013-01-26 08:15:00,13.0,7.7,30.63,ESE,115,11.0,11.0,79,0.00,,---,0.00,VWS V14.01,2013-01-26 14:15:00,
2013-01-26 08:20:00,13.2,7.9,30.63,ESE,115,9.0,10.0,79,0.00,,---,0.00,VWS V14.01,2013-01-26 14:20:00,
2013-01-26 08:25:00,13.4,8.1,30.63,ESE,115,10.0,10.0,79,0.00,,---,0.00,VWS V14.01,2013-01-26 14:25:00,
2013-01-26 08:30:00,13.7,8.1,30.62,ESE,105,11.0,13.0,78,0.00,,---,0.00,VWS V14.01,2013-01-26 14:30:00,
2013-01-26 08:35:00,14.0,8.4,30.62,ESE,110,11.0,13.0,78,0.00,,---,0.00,VWS V14.01,2013-01-26 14:35:00,
2013-01-26 08:40:00,14.3,8.7,30.62,ESE,116,9.0,13.0,78,0.00,,---,0.00,VWS V14.01,2013-01-26 14:40:00,
2013-01-26 08:45:00,14.7,9.1,30.62,ESE,112,12.0,13.0,78,0.00,,---,0.00,VWS V14.01,2013-01-26 14:45:00,
2013-01-26 08:50:00,15.0,9.1,30.61,ESE,123,13.0,14.0,77,0.00,,---,0.00,VWS V14.01,2013-01-26 14:50:00,
2013-01-26 08:55:00,15.3,9.4,30.61,ESE,108,11.0,15.0,77,0.00,,---,0.00,VWS V14.01,2013-01-26 14:55:00,
2013-01-26 09:00:00,15.7,9.5,30.60,SE,127,13.0,13.0,76,0.00,,---,0.00,VWS V14.01,2013-01-26 15:00:00,
2013-01-26 09:05:00,15.9,9.7,30.61,ESE,114,11.0,13.0,76,0.00,,---,0.00,VWS V14.01,2013-01-26 15:05:00,
2013-01-26 09:10:00,16.3,10.1,30.61,ESE,114,11.0,12.0,76,0.00,,---,0.00,VWS V14.01,2013-01-26 15:10:00,
2013-01-26 09:15:00,16.7,10.5,30.61,ESE,113,11.0,11.0,76,0.00,,---,0.00,VWS V14.01,2013-01-26 15:15:00,
2013-01-26 09:20:00,17.0,10.5,30.61,ESE,122,7.0,10.0,75,0.00,,---,0.00,VWS V14.01,2013-01-26 15:20:00,
2013-01-26 09:25:00,17.6,11.3,30.60,ESE,107,10.0,13.0,76,0.00,,---,0.00,VWS V14.01,2013-01-26 15:25:00,
2013-01-26 09:30:00,17.7,11.1,30.59,ESE,121,12.0,12.0,75,0.00,,---,0.00,VWS V14.01,2013-01-26 15:30:00,
2013-01-26 09:35:00,18.2,11.6,30.59,SE,127,11.0,13.0,75,0.00,,---,0.00,VWS V14.01,2013-01-26 15:35:00,
2013-01-26 09:40:00,18.8,12.2,30.59,SE,139,12.0,13.0,75,0.00,,---,0.00,VWS V14.01,2013-01-26 15:40:00,
2013-01-26 09:45:00,19.3,12.4,30.59,SE,132,17.0,17.0,74,0.00,,---,0.00,VWS V14.01,2013-01-26 15:45:00,
2013-01-26 09:50:00,19.7,12.8,30.58,SE,130,11.0,13.0,74,0.00,,---,0.00,VWS V14.01,2013-01-26 15:50:00,
2013-01-26 09:55:00,20.1,12.9,30.58,SE,143,13.0,15.0,73,0.00,,---,0.00,VWS V14.01,2013-01-26 15:55:00,
2013-01-26 10:00:00,20.5,13.2,30.57,SE,130,16.0,16.0,73,0.00,,---,0.00,VWS V14.01,2013-01-26 16:00:00,
2013-01-26 10:05:00,20.8,13.5,30.58,SE,127,16.0,16.0,73,0.00,,---,0.00,VWS V14.01,2013-01-26 16:05:00,
2013-01-26 10:10:00,21.5,14.2,30.58,SE,125,10.0,15.0,73,0.00,,---,0.00,VWS V14.01,2013-01-26 16:10:00,
2013-01-26 10:15:00,22.0,14.4,30.58,SE,126,11.0,13.0,72,0.00,,---,0.00,VWS V14.01,2013-01-26 16:15:00,
2013-01-26 10:20:00,22.8,15.1,30.57,SE,136,13.0,13.0,72,0.00,,---,0.00,VWS V14.01,2013-01-26 16:20:00,
2013-01-26 10:25:00,23.3,15.6,30.57,SE,134,17.0,17.0,72,0.00,,---,0.00,VWS V14.01,2013-01-26 16:25:00,
2013-01-26 10:30:00,23.9,15.9,30.57,SE,140,11.0,16.0,71,0.00,,---,0.00,VWS V14.01,2013-01-26 16:30:00,
2013-01-26 10:35:00,24.4,16.0,30.57,SSE,161,14.0,14.0,70,0.00,,---,0.00,VWS V14.01,2013-01-26 16:35:00,
2013-01-26 10:40:00,25.0,16.6,30.56,SE,130,13.0,13.0,70,0.00,,---,0.00,VWS V14.01,2013-01-26 16:40:00,
2013-01-26 10:45:00,25.6,17.2,30.56,SE,138,15.0,17.0,70,0.00,,---,0.00,VWS V14.01,2013-01-26 16:45:00,
2013-01-26 10:50:00,26.1,17.3,30.56,SSE,156,13.0,13.0,69,0.00,,---,0.00,VWS V14.01,2013-01-26 16:50:00,
2013-01-26 10:55:00,26.7,17.9,30.56,SSE,163,13.0,13.0,69,0.00,,---,0.00,VWS V14.01,2013-01-26 16:55:00,
2013-01-26 11:00:00,27.2,18.0,30.56,SE,146,9.0,14.0,68,0.00,,---,0.00,VWS V14.01,2013-01-26 17:00:00,
2013-01-26 11:05:00,28.0,18.8,30.57,SSE,159,4.0,15.0,68,0.00,,---,0.00,VWS V14.01,2013-01-26 17:05:00,
2013-01-26 11:10:00,28.3,18.8,30.56,SE,144,14.0,15.0,67,0.00,,---,0.00,VWS V14.01,2013-01-26 17:10:00,
2013-01-26 11:15:00,28.3,18.8,30.56,SE,145,12.0,15.0,67,0.00,,---,0.00,VWS V14.01,2013-01-26 17:15:00,
2013-01-26 11:20:00,28.6,19.0,30.55,SE,138,14.0,15.0,67,0.00,,---,0.00,VWS V14.01,2013-01-26 17:20:00,
2013-01-26 11:25:00,29.2,19.3,30.54,SE,129,11.0,12.0,66,0.00,,---,0.00,VWS V14.01,2013-01-26 17:25:00,
2013-01-26 11:30:00,29.6,20.0,30.53,SSE,161,13.0,15.0,67,0.00,,---,0.00,VWS V14.01,2013-01-26 17:30:00,
2013-01-26 11:35:00,30.0,20.0,30.53,SSE,152,18.0,18.0,66,0.00,,---,0.00,VWS V14.01,2013-01-26 17:35:00,
2013-01-26 11:40:00,30.4,20.4,30.53,South,170,12.0,13.0,66,0.00,,---,0.00,VWS V14.01,2013-01-26 17:40:00,
2013-01-26 11:45:00,31.1,20.7,30.51,SSE,165,12.0,19.0,65,0.00,,---,0.00,VWS V14.01,2013-01-26 17:45:00,
2013-01-26 11:50:00,31.5,21.1,30.51,SSE,151,14.0,18.0,65,0.00,,---,0.00,VWS V14.01,2013-01-26 17:50:00,
2013-01-26 11:55:00,32.3,22.2,30.51,SSE,150,16.0,16.0,66,0.00,,---,0.00,VWS V14.01,2013-01-26 17:55:00,
2013-01-26 12:00:00,33.2,22.4,30.50,South,170,11.0,13.0,64,0.00,,---,0.00,VWS V14.01,2013-01-26 18:00:00,
2013-01-26 12:05:00,33.7,22.5,30.49,SSE,152,10.0,16.0,63,0.00,,---,0.00,VWS V14.01,2013-01-26 18:05:00,
2013-01-26 12:10:00,33.3,22.1,30.50,SSE,155,16.0,17.0,63,0.00,,---,0.00,VWS V14.01,2013-01-26 18:10:00,
2013-01-26 12:15:00,33.1,22.3,30.49,SSE,155,12.0,15.0,64,0.00,,---,0.00,VWS V14.01,2013-01-26 18:15:00,
2013-01-26 12:20:00,34.1,23.6,30.48,SSE,160,15.0,16.0,65,0.00,,---,0.00,VWS V14.01,2013-01-26 18:20:00,
2013-01-26 12:25:00,35.2,23.9,30.47,SSE,159,11.0,18.0,63,0.00,,---,0.00,VWS V14.01,2013-01-26 18:25:00,
2013-01-26 12:30:00,35.5,23.4,30.45,SSE,148,17.0,19.0,61,0.00,,---,0.00,VWS V14.01,2013-01-26 18:30:00,
2013-01-26 12:35:00,35.5,23.4,30.46,SE,144,16.0,16.0,61,0.00,,---,0.00,VWS V14.01,2013-01-26 18:35:00,
2013-01-26 12:40:00,36.0,23.9,30.44,SE,142,16.0,19.0,61,0.00,,---,0.00,VWS V14.01,2013-01-26 18:40:00,
2013-01-26 12:45:00,36.1,24.0,30.44,SSW,204,12.0,13.0,61,0.00,,---,0.00,VWS V14.01,2013-01-26 18:45:00,
2013-01-26 12:50:00,36.5,24.0,30.44,SE,137,11.0,13.0,60,0.00,,---,0.00,VWS V14.01,2013-01-26 18:50:00,
2013-01-26 12:55:00,37.2,25.0,30.43,SSE,147,13.0,13.0,61,0.00,,---,0.00,VWS V14.01,2013-01-26 18:55:00,
2013-01-26 13:00:00,38.0,25.0,30.41,SE,146,10.0,13.0,59,0.00,,---,0.00,VWS V14.01,2013-01-26 19:00:00,
2013-01-26 13:05:00,38.4,25.3,30.43,SE,146,14.0,18.0,59,0.00,,---,0.00,VWS V14.01,2013-01-26 19:05:00,
2013-01-26 13:10:00,39.1,26.0,30.41,South,169,8.0,16.0,59,0.00,,---,0.00,VWS V14.01,2013-01-26 19:10:00,
2013-01-26 13:15:00,40.1,26.5,30.41,SSE,152,11.0,13.0,58,0.00,,---,0.00,VWS V14.01,2013-01-26 19:15:00,
2013-01-26 13:20:00,39.8,25.8,30.41,SSE,164,14.0,15.0,57,0.00,,---,0.00,VWS V14.01,2013-01-26 19:20:00,
2013-01-26 13:25:00,39.8,26.2,30.41,SSE,157,15.0,15.0,58,0.00,,---,0.00,VWS V14.01,2013-01-26 19:25:00,
2013-01-26 13:30:00,40.6,26.6,30.39,SSE,163,10.0,13.0,57,0.00,,---,0.00,VWS V14.01,2013-01-26 19:30:00,
2013-01-26 13:35:00,40.8,26.8,30.39,SE,140,13.0,13.0,57,0.00,,---,0.00,VWS V14.01,2013-01-26 19:35:00,
2013-01-26 13:40:00,40.8,26.3,30.39,SSE,150,11.0,13.0,56,0.00,,---,0.00,VWS V14.01,2013-01-26 19:40:00,
2013-01-26 13:45:00,40.5,26.0,30.38,SSE,160,10.0,14.0,56,0.00,,---,0.00,VWS V14.01,2013-01-26 19:45:00,
2013-01-26 13:50:00,40.7,26.2,30.38,SE,143,12.0,14.0,56,0.00,,---,0.00,VWS V14.01,2013-01-26 19:50:00,
2013-01-26 13:55:00,40.8,26.3,30.38,SSE,153,12.0,15.0,56,0.00,,---,0.00,VWS V14.01,2013-01-26 19:55:00,
2013-01-26 14:00:00,41.1,26.6,30.37,SSE,148,17.0,17.0,56,0.00,,---,0.00,VWS V14.01,2013-01-26 20:00:00,
2013-01-26 14:05:00,41.4,26.9,30.38,SSE,162,12.0,16.0,56,0.00,,---,0.00,VWS V14.01,2013-01-26 20:05:00,
2013-01-26 14:10:00,41.8,27.3,30.38,SSE,168,11.0,11.0,56,0.00,,---,0.00,VWS V14.01,2013-01-26 20:10:00,
2013-01-26 14:15:00,42.4,27.0,30.37,South,186,12.0,13.0,54,0.00,,---,0.00,VWS V14.01,2013-01-26 20:15:00,
2013-01-26 14:20:00,43.3,27.8,30.36,SE,143,15.0,18.0,54,0.00,,---,0.00,VWS V14.01,2013-01-26 20:20:00,
2013-01-26 14:25:00,42.8,26.4,30.36,SSE,165,18.0,18.0,52,0.00,,---,0.00,VWS V14.01,2013-01-26 20:25:00,
2013-01-26 14:30:00,42.5,27.0,30.35,SE,136,12.0,12.0,54,0.00,,---,0.00,VWS V14.01,2013-01-26 20:30:00,
2013-01-26 14:35:00,42.7,27.2,30.35,SSE,166,8.0,14.0,54,0.00,,---,0.00,VWS V14.01,2013-01-26 20:35:00,
2013-01-26 14:40:00,42.9,27.4,30.34,SSE,162,16.0,19.0,54,0.00,,---,0.00,VWS V14.01,2013-01-26 20:40:00,
2013-01-26 14:45:00,43.3,27.3,30.35,SSE,163,13.0,14.0,53,0.00,,---,0.00,VWS V14.01,2013-01-26 20:45:00,
2013-01-26 14:50:00,43.8,27.8,30.34,SSE,159,14.0,17.0,53,0.00,,---,0.00,VWS V14.01,2013-01-26 20:50:00,
2013-01-26 14:55:00,43.6,27.1,30.34,SSE,160,15.0,15.0,52,0.00,,---,0.00,VWS V14.01,2013-01-26 20:55:00,
2013-01-26 15:00:00,43.6,27.6,30.33,SSE,167,18.0,20.0,53,0.00,,---,0.00,VWS V14.01,2013-01-26 21:00:00,
2013-01-26 15:05:00,43.4,27.4,30.34,SSE,157,16.0,21.0,53,0.00,,---,0.00,VWS V14.01,2013-01-26 21:05:00,
2013-01-26 15:10:00,43.2,27.2,30.34,SE,140,13.0,16.0,53,0.00,,---,0.00,VWS V14.01,2013-01-26 21:10:00,
2013-01-26 15:15:00,43.2,27.2,30.34,SSE,165,11.0,19.0,53,0.00,,---,0.00,VWS V14.01,2013-01-26 21:15:00,
2013-01-26 15:20:00,43.3,27.3,30.33,SSE,158,11.0,13.0,53,0.00,,---,0.00,VWS V14.01,2013-01-26 21:20:00,
2013-01-26 15:25:00,43.6,27.6,30.32,SE,135,14.0,18.0,53,0.00,,---,0.00,VWS V14.01,2013-01-26 21:25:00,
2013-01-26 15:30:00,43.8,27.8,30.32,SSE,164,12.0,15.0,53,0.00,,---,0.00,VWS V14.01,2013-01-26 21:30:00,
2013-01-26 15:35:00,44.5,28.5,30.32,SE,139,13.0,13.0,53,0.00,,---,0.00,VWS V14.01,2013-01-26 21:35:00,
2013-01-26 15:40:00,44.7,28.2,30.32,SSE,148,14.0,15.0,52,0.00,,---,0.00,VWS V14.01,2013-01-26 21:40:00,
2013-01-26 15:45:00,44.7,28.2,30.32,SE,140,13.0,16.0,52,0.00,,---,0.00,VWS V14.01,2013-01-26 21:45:00,
2013-01-26 15:50:00,44.6,28.1,30.32,SSE,150,13.0,16.0,52,0.00,,---,0.00,VWS V14.01,2013-01-26 21:50:00,
2013-01-26 15:55:00,44.5,28.0,30.32,SSE,155,13.0,18.0,52,0.00,,---,0.00,VWS V14.01,2013-01-26 21:55:00,
2013-01-26 16:00:00,44.4,27.9,30.31,SE,142,12.0,14.0,52,0.00,,---,0.00,VWS V14.01,2013-01-26 22:00:00,
2013-01-26 16:05:00,44.5,28.5,30.31,SE,144,9.0,12.0,53,0.00,,---,0.00,VWS V14.01,2013-01-26 22:05:00,
2013-01-26 16:10:00,44.4,27.9,30.31,SE,146,11.0,16.0,52,0.00,,---,0.00,VWS V14.01,2013-01-26 22:10:00,
2013-01-26 16:15:00,44.2,28.2,30.31,SE,146,13.0,15.0,53,0.00,,---,0.00,VWS V14.01,2013-01-26 22:15:00,
2013-01-26 16:20:00,44.0,28.0,30.30,SSE,155,11.0,15.0,53,0.00,,---,0.00,VWS V14.01,2013-01-26 22:20:00,
2013-01-26 16:25:00,43.9,27.9,30.30,SE,138,14.0,17.0,53,0.00,,---,0.00,VWS V14.01,2013-01-26 22:25:00,
2013-01-26 16:30:00,43.7,27.7,30.30,SE,139,10.0,14.0,53,0.00,,---,0.00,VWS V14.01,2013-01-26 22:30:00,
2013-01-26 16:35:00,43.4,27.9,30.31,SE,140,15.0,17.0,54,0.00,,---,0.00,VWS V14.01,2013-01-26 22:35:00,
2013-01-26 16:40:00,43.2,27.7,30.31,SE,140,9.0,12.0,54,0.00,,---,0.00,VWS V14.01,2013-01-26 22:40:00,
2013-01-26 16:45:00,42.9,27.9,30.30,SE,132,11.0,11.0,55,0.00,,---,0.00,VWS V14.01,2013-01-26 22:45:00,
2013-01-26 16:50:00,42.6,27.6,30.30,SE,138,9.0,9.0,55,0.00,,---,0.00,VWS V14.01,2013-01-26 22:50:00,
2013-01-26 16:55:00,42.2,27.6,30.30,SE,136,12.0,12.0,56,0.00,,---,0.00,VWS V14.01,2013-01-26 22:55:00,
2013-01-26 17:00:00,41.8,27.3,30.30,SE,130,10.0,13.0,56,0.00,,---,0.00,VWS V14.01,2013-01-26 23:00:00,
2013-01-26 17:05:00,41.5,27.4,30.31,SE,142,12.0,12.0,57,0.00,,---,0.00,VWS V14.01,2013-01-26 23:05:00,
2013-01-26 17:10:00,41.1,27.0,30.30,SE,138,11.0,12.0,57,0.00,,---,0.00,VWS V14.01,2013-01-26 23:10:00,
2013-01-26 17:15:00,40.8,27.2,30.30,SE,134,9.0,11.0,58,0.00,,---,0.00,VWS V14.01,2013-01-26 23:15:00,
2013-01-26 17:20:00,40.2,27.0,30.31,SE,130,9.0,10.0,59,0.00,,---,0.00,VWS V14.01,2013-01-26 23:20:00,
2013-01-26 17:25:00,39.6,26.5,30.31,ESE,122,8.0,8.0,59,0.00,,---,0.00,VWS V14.01,2013-01-26 23:25:00,
2013-01-26 17:30:00,38.9,26.6,30.31,ESE,121,6.0,6.0,61,0.00,,---,0.00,VWS V14.01,2013-01-26 23:30:00,
2013-01-26 17:35:00,38.3,26.0,30.32,ESE,123,8.0,11.0,61,0.00,,---,0.00,VWS V14.01,2013-01-26 23:35:00,
2013-01-26 17:40:00,38.4,26.5,30.32,SE,134,13.0,14.0,62,0.00,,---,0.00,VWS V14.01,2013-01-26 23:40:00,
2013-01-26 17:45:00,39.1,27.2,30.31,SE,140,13.0,13.0,62,0.00,,---,0.00,VWS V14.01,2013-01-26 23:45:00,
2013-01-26 17:50:00,39.7,27.4,30.31,SSE,149,7.0,10.0,61,0.00,,---,0.00,VWS V14.01,2013-01-26 23:50:00,
2013-01-26 17:55:00,39.9,27.2,30.30,SE,137,7.0,8.0,60,0.00,,---,0.00,VWS V14.01,2013-01-26 23:55:00,
2013-01-26 18:00:00,39.7,27.0,30.31,SSE,150,9.0,9.0,60,0.00,,---,0.00,VWS V14.01,2013-01-27 00:00:00,
2013-01-26 18:05:00,39.6,27.3,30.30,SE,139,9.0,11.0,61,0.00,,---,0.00,VWS V14.01,2013-01-27 00:05:00,
2013-01-26 18:10:00,39.4,27.1,30.31,SE,142,10.0,12.0,61,0.00,,---,0.00,VWS V14.01,2013-01-27 00:10:00,
2013-01-26 18:15:00,39.3,27.0,30.31,SE,143,9.0,10.0,61,0.00,,---,0.00,VWS V14.01,2013-01-27 00:15:00,
2013-01-26 18:20:00,39.2,27.3,30.31,SE,132,14.0,16.0,62,0.00,,---,0.00,VWS V14.01,2013-01-27 00:20:00,
2013-01-26 18:25:00,39.4,27.5,30.31,SE,138,19.0,19.0,62,0.00,,---,0.00,VWS V14.01,2013-01-27 00:25:00,
2013-01-26 18:30:00,39.6,27.3,30.30,SSE,147,16.0,20.0,61,0.00,,---,0.00,VWS V14.01,2013-01-27 00:30:00,
2013-01-26 18:35:00,40.0,27.6,30.30,SSE,153,20.0,21.0,61,0.00,,---,0.00,VWS V14.01,2013-01-27 00:35:00,
2013-01-26 18:40:00,40.0,27.2,30.30,SE,146,19.0,21.0,60,0.00,,---,0.00,VWS V14.01,2013-01-27 00:40:00,
2013-01-26 18:45:00,39.8,27.1,30.30,SE,136,16.0,18.0,60,0.00,,---,0.00,VWS V14.01,2013-01-27 00:45:00,
2013-01-26 18:50:00,39.6,27.3,30.30,SSE,149,14.0,15.0,61,0.00,,---,0.00,VWS V14.01,2013-01-27 00:50:00,
2013-01-26 18:55:00,39.5,27.2,30.30,SE,135,11.0,14.0,61,0.00,,---,0.00,VWS V14.01,2013-01-27 00:55:00,
2013-01-26 19:00:00,39.4,27.1,30.31,SSE,148,11.0,13.0,61,0.00,,---,0.00,VWS V14.01,2013-01-27 01:00:00,
2013-01-26 19:05:00,39.2,27.3,30.31,SE,146,15.0,15.0,62,0.00,,---,0.00,VWS V14.01,2013-01-27 01:05:00,
2013-01-26 19:10:00,39.0,27.1,30.31,SE,135,13.0,13.0,62,0.00,,---,0.00,VWS V14.01,2013-01-27 01:10:00,
2013-01-26 19:15:00,38.8,26.9,30.31,SE,144,14.0,16.0,62,0.00,,---,0.00,VWS V14.01,2013-01-27 01:15:00,
2013-01-26 19:20:00,38.6,26.7,30.31,SSE,148,14.0,14.0,62,0.00,,---,0.00,VWS V14.01,2013-01-27 01:20:00,
2013-01-26 19:25:00,38.5,27.0,30.31,SE,140,10.0,14.0,63,0.00,,---,0.00,VWS V14.01,2013-01-27 01:25:00,
2013-01-26 19:30:00,38.4,26.9,30.32,SSE,149,14.0,14.0,63,0.00,,---,0.00,VWS V14.01,2013-01-27 01:30:00,
2013-01-26 19:35:00,38.3,26.8,30.31,SSE,154,11.0,16.0,63,0.00,,---,0.00,VWS V14.01,2013-01-27 01:35:00,
2013-01-26 19:40:00,38.4,26.9,30.32,SE,146,12.0,13.0,63,0.00,,---,0.00,VWS V14.01,2013-01-27 01:40:00,
2013-01-26 19:45:00,38.2,26.7,30.32,SE,142,10.0,15.0,63,0.00,,---,0.00,VWS V14.01,2013-01-27 01:45:00,
2013-01-26 19:50:00,38.1,27.0,30.32,SSE,149,15.0,15.0,64,0.00,,---,0.00,VWS V14.01,2013-01-27 01:50:00,
2013-01-26 19:55:00,38.0,26.9,30.32,SSE,155,11.0,11.0,64,0.00,,---,0.00,VWS V14.01,2013-01-27 01:55:00,
2013-01-26 20:00:00,38.0,26.5,30.32,SSE,149,12.0,12.0,63,0.00,,---,0.00,VWS V14.01,2013-01-27 02:00:00,
2013-01-26 20:05:00,38.1,26.6,30.30,SE,139,10.0,12.0,63,0.00,,---,0.00,VWS V14.01,2013-01-27 02:05:00,
2013-01-26 20:10:00,38.2,26.7,30.30,SSE,148,9.0,12.0,63,0.00,,---,0.00,VWS V14.01,2013-01-27 02:10:00,
2013-01-26 20:15:00,38.2,26.7,30.30,SSE,159,9.0,10.0,63,0.00,,---,0.00,VWS V14.01,2013-01-27 02:15:00,
2013-01-26 20:20:00,38.2,26.7,30.30,SE,129,11.0,14.0,63,0.00,,---,0.00,VWS V14.01,2013-01-27 02:20:00,
2013-01-26 20:25:00,38.3,26.8,30.30,SE,134,10.0,16.0,63,0.00,,---,0.00,VWS V14.01,2013-01-27 02:25:00,
2013-01-26 20:30:00,38.5,26.6,30.30,SSE,157,18.0,18.0,62,0.00,,---,0.00,VWS V14.01,2013-01-27 02:30:00,
2013-01-26 20:35:00,38.4,26.5,30.30,SSE,155,13.0,15.0,62,0.00,,---,0.00,VWS V14.01,2013-01-27 02:35:00,
2013-01-26 20:40:00,38.3,26.8,30.30,SSE,159,14.0,15.0,63,0.00,,---,0.00,VWS V14.01,2013-01-27 02:40:00,
2013-01-26 20:45:00,38.2,26.7,30.30,SE,144,9.0,12.0,63,0.00,,---,0.00,VWS V14.01,2013-01-27 02:45:00,
2013-01-26 20:50:00,38.0,26.5,30.30,SSE,149,10.0,15.0,63,0.00,,---,0.00,VWS V14.01,2013-01-27 02:50:00,
2013-01-26 20:55:00,37.9,26.5,30.30,SSE,148,13.0,13.0,63,0.00,,---,0.00,VWS V14.01,2013-01-27 02:55:00,
2013-01-26 21:00:00,37.8,26.4,30.30,SSE,156,11.0,17.0,63,0.00,,---,0.00,VWS V14.01,2013-01-27 03:00:00,
2013-01-26 21:05:00,37.7,26.3,30.28,SE,143,16.0,16.0,63,0.00,,---,0.00,VWS V14.01,2013-01-27 03:05:00,
2013-01-26 21:10:00,37.6,26.2,30.28,SSE,159,13.0,16.0,63,0.00,,---,0.00,VWS V14.01,2013-01-27 03:10:00,
2013-01-26 21:15:00,37.3,25.9,30.27,SSE,161,11.0,13.0,63,0.00,,---,0.00,VWS V14.01,2013-01-27 03:15:00,
2013-01-26 21:20:00,37.1,26.1,30.27,SSE,154,11.0,14.0,64,0.00,,---,0.00,VWS V14.01,2013-01-27 03:20:00,
2013-01-26 21:25:00,36.7,26.1,30.27,SSE,152,9.0,13.0,65,0.00,,---,0.00,VWS V14.01,2013-01-27 03:25:00,
2013-01-26 21:30:00,36.7,26.1,30.27,SSE,150,13.0,13.0,65,0.00,,---,0.00,VWS V14.01,2013-01-27 03:30:00,
2013-01-26 21:35:00,36.8,26.1,30.27,SSE,164,10.0,14.0,65,0.00,,---,0.00,VWS V14.01,2013-01-27 03:35:00,
2013-01-26 21:40:00,36.8,26.1,30.27,SSE,157,10.0,10.0,65,0.00,,---,0.00,VWS V14.01,2013-01-27 03:40:00,
2013-01-26 21:45:00,36.8,26.1,30.27,SSE,150,12.0,13.0,65,0.00,,---,0.00,VWS V14.01,2013-01-27 03:45:00,
2013-01-26 21:50:00,36.8,26.1,30.27,SE,136,9.0,11.0,65,0.00,,---,0.00,VWS V14.01,2013-01-27 03:50:00,
2013-01-26 21:55:00,36.8,26.1,30.27,SE,139,9.0,10.0,65,0.00,,---,0.00,VWS V14.01,2013-01-27 03:55:00,
2013-01-26 22:00:00,36.7,26.1,30.27,SE,134,9.0,13.0,65,0.00,,---,0.00,VWS V14.01,2013-01-27 04:00:00,
2013-01-26 22:05:00,36.7,26.1,30.27,SE,145,10.0,12.0,65,0.00,,---,0.00,VWS V14.01,2013-01-27 04:05:00,
2013-01-26 22:10:00,36.8,26.1,30.24,SE,144,11.0,12.0,65,0.00,,---,0.00,VWS V14.01,2013-01-27 04:10:00,
2013-01-26 22:15:00,36.8,26.1,30.25,SSE,150,11.0,12.0,65,0.00,,---,0.00,VWS V14.01,2013-01-27 04:15:00,
2013-01-26 22:20:00,36.8,26.1,30.25,SSE,147,11.0,12.0,65,0.00,,---,0.00,VWS V14.01,2013-01-27 04:20:00,
2013-01-26 22:25:00,36.8,26.1,30.25,SE,134,9.0,11.0,65,0.00,,---,0.00,VWS V14.01,2013-01-27 04:25:00,
2013-01-26 22:30:00,36.8,26.1,30.25,SE,142,10.0,10.0,65,0.00,,---,0.00,VWS V14.01,2013-01-27 04:30:00,
2013-01-26 22:35:00,36.8,26.1,30.25,ESE,115,7.0,12.0,65,0.00,,---,0.00,VWS V14.01,2013-01-27 04:35:00,
2013-01-26 22:40:00,36.7,26.1,30.25,SSE,149,9.0,11.0,65,0.00,,---,0.00,VWS V14.01,2013-01-27 04:40:00,
2013-01-26 22:45:00,36.7,26.1,30.25,SE,140,11.0,11.0,65,0.00,,---,0.00,VWS V14.01,2013-01-27 04:45:00,
2013-01-26 22:50:00,36.8,26.1,30.24,SE,139,11.0,11.0,65,0.00,,---,0.00,VWS V14.01,2013-01-27 04:50:00,
2013-01-26 22:55:00,36.8,26.1,30.24,SE,142,9.0,9.0,65,0.00,,---,0.00,VWS V14.01,2013-01-27 04:55:00,
2013-01-26 23:00:00,36.8,26.1,30.24,SSE,149,10.0,12.0,65,0.00,,---,0.00,VWS V14.01,2013-01-27 05:00:00,
2013-01-26 23:05:00,36.8,26.1,30.24,SSE,150,11.0,14.0,65,0.00,,---,0.00,VWS V14.01,2013-01-27 05:05:00,
2013-01-26 23:10:00,36.7,26.1,30.21,SE,142,13.0,14.0,65,0.00,,---,0.00,VWS V14.01,2013-01-27 05:10:00,
2013-01-26 23:15:00,36.6,26.0,30.21,SE,140,10.0,12.0,65,0.00,,---,0.00,VWS V14.01,2013-01-27 05:15:00,
2013-01-26 23:20:00,36.5,25.9,30.21,SE,140,9.0,11.0,65,0.00,,---,0.00,VWS V14.01,2013-01-27 05:20:00,
2013-01-26 23:25:00,36.4,25.8,30.21,SE,134,9.0,12.0,65,0.00,,---,0.00,VWS V14.01,2013-01-27 05:25:00,
2013-01-26 23:30:00,36.3,25.7,30.21,SE,132,10.0,11.0,65,0.00,,---,0.00,VWS V14.01,2013-01-27 05:30:00,
2013-01-26 23:35:00,36.3,25.7,30.21,SE,131,10.0,10.0,65,0.00,,---,0.00,VWS V14.01,2013-01-27 05:35:00,
2013-01-26 23:40:00,36.1,25.5,30.21,SE,132,10.0,10.0,65,0.00,,---,0.00,VWS V14.01,2013-01-27 05:40:00,
2013-01-26 23:45:00,36.1,25.9,30.21,SE,146,7.0,11.0,66,0.00,,---,0.00,VWS V14.01,2013-01-27 05:45:00,
2013-01-26 23:50:00,36.3,26.0,30.21,SSE,152,10.0,12.0,66,0.00,,---,0.00,VWS V14.01,2013-01-27 05:50:00,
2013-01-26 23:55:00,36.6,26.0,30.21,SE,137,7.0,9.0,65,0.00,,---,0.00,VWS V14.01,2013-01-27 05:55:00,